User: anonymous   Login
Location: D.A.R.C. Observatory
(36.7133°N, 120.8553°W)
Time: 10:01:44
(UTC-07:00)
Language:

USA 215 - Orbit

View from above orbital plane
View from above orbital plane
View from above satellite
View from above satellite

Ground track
Ground track

The orbit data is extracted from the following two-line orbital elements,

1 37162U 10046A   17267.12756514 0.00000000  00000-0  00000-0 0    07
2 37162 123.0013 122.5060 0004000  65.8327 294.1672 13.41404863    07
Epoch (UTC): 24 September 2017 03:03:41
Eccentricity: 0.0004000
inclination: 123.0013°
perigee height: 1101 km
apogee height: 1107 km
right ascension of ascending node: 122.5060°
argument of perigee: 65.8327°
revolutions per day: 13.41404863
mean anomaly at epoch: 294.1672°
orbit number at epoch: 0

The dashed part of the orbit path shows where the satellite is in the earth's shadow,  

DLR